Other Surface Observations
Issued by NWS

Home | Current Version | Previous Version | Text Only | Print | Product List | Glossary On
Versions: 1 2 3 4 5 6 7 8 9 10 11 12 13 14 15 16 17 18 19 20 21 22 23 24 25 26 27 28 29 30 31 32 33 34 35 36 37 38 39 40 41 42 43 44 45 46 47 48 49 50
760
SXUS52 KTAE 250006
OSOTAE
OSOTAE
North Florida/South Alabama/Southwest Georgia Weather Roundup
National Weather Service Tallahassee Florida
800 PM EDT TUE MAY 24 2016

Note: "fair" indicates few or no clouds below 12,000 feet with no
significant weather and/or obstructions to visibility.

!FLZ017-115-028-034-025-250100
...North Florida...

CITY           SKY/WX    TMP DP  RH WIND       PRES   REMARKS
TALLAHASSEE    PTCLDY    85  58  39 S6        30.09R
APALACHICOLA   CLEAR     79  66  64 W7        30.10R
PERRY          CLEAR     82  63  52 SW3       30.10R
CROSS CITY       N/A     83  63  50 W6        30.08R
JACKSONVILLE   MOCLDY    78  61  55 SE10      30.12R
$$

!FLZ112-006-005-002-011-250100
...Florida Panhandle...

CITY           SKY/WX    TMP DP  RH WIND       PRES   REMARKS
MARIANNA       CLEAR     85  52  32 E5        30.09R
BONIFAY        FAIR      79  65  62 CALM      30.09S
PANAMA CITY NW FAIR      80  60  50 S8        30.10R
TYNDALL AFB    CLEAR     78  64  61 SW6       30.10R
TYND DRONE APT FAIR      78  66  67 SW5       30.10R
DE FUNIAK SPR  FAIR      80  56  44 SW3       30.11R
EGLIN AFB      PTCLDY    80  59  49 SW7       30.09S
DESTIN         CLEAR     82  64  54 SW6       30.10R
HURLBURT       NOT AVBL
CRESTVIEW      CLEAR     81  53  37 SW6       30.11R
PENSACOLA      CLEAR     80  57  45 SW12      30.10R
$$

!ALZ063-066-250100
...South Alabama...

CITY           SKY/WX    TMP DP  RH WIND       PRES   REMARKS
DOTHAN         CLEAR     82  51  34 SE5       30.13S
OZARK CAIRNS   CLEAR     84  57  39 SE3       30.09S
FT RUCKER HELI CLEAR     83  57  41 CALM      30.08S
RUCKER HELI 3  FAIR      83  53  34 SE3       30.11R
RUCKER HELI 2  NOT AVBL
FLORALA APT    CLEAR     80  59  48 SW7       30.11R
ANDALUSIA      CLEAR     85  61  44 CALM      30.09S
TROY           CLEAR     83  65  54 CALM      30.11R
EUFALA         FAIR      79  60  52 CALM      30.09S
MOBILE         CLEAR     79  63  57 S8        30.10F
$$

!GAZ120>161-250100
...Southwest and South Central Georgia...

CITY           SKY/WX    TMP DP  RH WIND       PRES   REMARKS
THOMASVILLE    FAIR      82  57  42 CALM      30.11R
BAINBRIDGE     CLEAR     82  52  34 CALM      30.10R
MOODY AFB      CLOUDY    83  57  41 E3        30.09R
VALDOSTA       PTCLDY    83  59  44 NE3       30.09R
MOULTRIE       CLEAR     81  57  44 CALM      30.11R
BLAKELY        CLEAR     81  63  54 CALM      30.10S
ALBANY         CLEAR     83  48  29 SE5       30.12R
TIFTON         FAIR      82  55  39 CALM      30.11R
FITZGERALD     FAIR      78  66  66 CALM      30.14R
CORDELE        FAIR      84  55  36 E3        30.12R
AMERICUS       FAIR      81  50  34 CALM      30.13S
HOMERVILLE     FAIR      81  63  54 CALM      30.11R
$$

!GMZ750-755-770-775-250100
...Coastal and Buoy Obs...

STATION/POSITION TIME  TEMP    WIND        PRES    VSBY  WAVE
                       AIR SEA DIR/SP/G                  HT/PER
                 (UTC) (F)     (DEG/KT/KT) (MB)    (MI)  (FT/S)
KEATON BEACH     0000   80     300/  8/  9 1018.7R
CEDAR KEY        2300   81     300/  7/  8 1018.5F
C TOWER          0000   77     290/  6/  7 1019.9R
APALACHICOLA BUO 2350   79 80  300/  2/  4 1018.8R         0
PANAMA CITY BUOY 2250   78 81  120/  4/  6 1019.5          1
MOBILE BUOY      2310   78 78  130/ 10/ 14 1019.0R
ORANGE BCH AL BU 2350   78 79  180/ 10/ 12 1018.7F         1
$$




USA.gov is the U.S. government's official web portal to all federal, state and local government web resources and services.